Location: Anjeux
(47.8815°N, 6.2076°E)
Time: 16:34:34
(UTC+00:00)

Cosmos 2227 Rocket - Pass Details

Date: 05 March 2021
Orbit: 839 x 845 km, 71.0° (Epoch: 15 April)

Event Time Altitude Azimuth Distance (km) Brightness Sun altitude
Rises 05:19:52 0° 174° (S) 3,387 5.4 -8.9°
Reaches altitude 10° 05:22:34 10° 163° (SSE) 2,458 4.8 -8.5°
Maximum altitude 05:27:24 30° 104° (ESE) 1,470 4.4 -7.6°
Drops below altitude 10° 05:32:15 10° 45° (NE) 2,475 5.3 -6.8°
Sets 05:34:58 0° 35° (NE) 3,414 5.9 -6.4°
